TimeCST,TemperatureF,Dew PointF,Humidity,Sea Level PressureIn,VisibilityMPH,Wind Direction,Wind SpeedMPH,Gust SpeedMPH,PrecipitationIn,Events,Conditions,WindDirDegrees,DateUTC
12:53 AM,60.1,57.0,90,30.18,10.0,Calm,Calm,-,N/A,,Partly Cloudy,0,2012-11-21 06:53:00
1:53 AM,57.0,55.0,93,30.18,10.0,Calm,Calm,-,N/A,,Clear,0,2012-11-21 07:53:00
2:53 AM,57.0,55.9,96,30.18,8.0,Calm,Calm,-,N/A,,Clear,0,2012-11-21 08:53:00
3:53 AM,54.0,53.1,97,30.19,6.0,Calm,Calm,-,N/A,,Clear,0,2012-11-21 09:53:00
4:53 AM,55.0,53.1,93,30.19,6.0,Calm,Calm,-,N/A,,Clear,0,2012-11-21 10:53:00
5:53 AM,55.9,55.0,97,30.20,7.0,Calm,Calm,-,N/A,,Clear,0,2012-11-21 11:53:00
6:53 AM,55.0,54.0,96,30.22,7.0,Calm,Calm,-,N/A,,Clear,0,2012-11-21 12:53:00
7:53 AM,57.0,55.0,93,30.24,6.0,Calm,Calm,-,N/A,,Clear,0,2012-11-21 13:53:00
8:53 AM,60.1,57.9,93,30.25,6.0,Calm,Calm,-,N/A,,Clear,0,2012-11-21 14:53:00
9:53 AM,64.9,59.0,81,30.26,6.0,Calm,Calm,-,N/A,,Haze,0,2012-11-21 15:53:00
10:53 AM,69.1,57.0,65,30.26,10.0,Calm,Calm,-,N/A,,Clear,0,2012-11-21 16:53:00
11:53 AM,72.0,57.0,59,30.23,10.0,Calm,Calm,-,N/A,,Clear,0,2012-11-21 17:53:00
12:53 PM,73.9,57.9,57,30.20,10.0,ESE,4.6,-,N/A,,Clear,110,2012-11-21 18:53:00
1:53 PM,77.0,55.9,48,30.17,10.0,SSE,3.5,-,N/A,,Scattered Clouds,150,2012-11-21 19:53:00
2:53 PM,78.1,52.0,40,30.15,10.0,SE,5.8,-,N/A,,Clear,140,2012-11-21 20:53:00
3:53 PM,75.9,51.1,42,30.14,10.0,SE,6.9,-,N/A,,Partly Cloudy,140,2012-11-21 21:53:00
4:53 PM,75.0,52.0,44,30.14,10.0,Calm,Calm,-,N/A,,Clear,0,2012-11-21 22:53:00
5:53 PM,71.1,54.0,55,30.15,10.0,ESE,3.5,-,N/A,,Clear,120,2012-11-21 23:53:00
6:53 PM,66.0,54.0,65,30.17,10.0,Calm,Calm,-,N/A,,Clear,0,2012-11-22 00:53:00
7:53 PM,62.1,54.0,75,30.18,10.0,Calm,Calm,-,N/A,,Clear,0,2012-11-22 01:53:00
8:53 PM,62.1,53.1,72,30.18,10.0,ESE,4.6,-,N/A,,Clear,110,2012-11-22 02:53:00
9:53 PM,60.1,52.0,75,30.18,10.0,SE,3.5,-,N/A,,Clear,130,2012-11-22 03:53:00
10:53 PM,59.0,52.0,78,30.17,10.0,Calm,Calm,-,N/A,,Clear,0,2012-11-22 04:53:00
11:53 PM,55.0,51.1,86,30.15,10.0,Calm,Calm,-,N/A,,Clear,0,2012-11-22 05:53:00